sat.trackr.live / text

‹ back to catalog

KUIPER-00103

NORAD 65141 · 2025-171K

PAYLOAD ACTIVE UNKNOWN

§ Identity

Operator
Country
US
Launch date
2025-08-11
Launch site
AFETR
Launch vehicle
Mass (kg)
RCS (m²)

External: N2YO · Heavens-Above · Gunter

§ Orbital elements

Epoch: 2026-05-25T03:23:43.522944Z

Period
97.30 min
Inclination
51.8977°
Eccentricity
0.0000351
Mean motion
14.79933176 rev/d
Perigee alt
629.3 km
Apogee alt
629.8 km
Semi-major
7,007.7 km
B*
8.6504e-5
RAAN
192.4916°
Arg perigee
79.1169°
Mean anomaly
280.9832°
Rev number
4,403

§ Raw data

KUIPER-001031 65141U 25171K   26145.14147596  .00000438  00000+0  86504-4 0  99992 65141  51.8977 192.4916 0000351  79.1169 280.9832 14.79933176 44033

JSON: /api/v1/satellites/65141 · /tle

For live sub-satellite position, see the globe view (requires WebGL).

§ Visibility from observer

Set your observer location to see the next 7 days of passes ≥ 10°. The values pass through the URL so the page stays shareable.

No JS? Fill the form by hand. The geolocation button needs JavaScript.